Flag for U.S.A. Weather past 2 weeks in Fort Worth, Texas, U.S.A.

Now
77 °F

Clear.


Feels Like: 79 °F
Forecast: 75 / 92 °F
Wind: 5 mph from Southeast

Location: Meacham International Airport

Current Time: Jul 30, 2014 at 1:03:01 AM

Latest Report: Jul 29, 2014 at 11:53 PM


Visibility: 10 mi

Pressure: 30.03 "Hg

Humidity: 58%

Dew point: 61 °F

Location of Fort WorthLocation

Historic Weather in Fort Worth — Graph

°F

Fort Worth temperature yesterday

Maximum temperature yesterday: 86 °F (at 4:53 PM)
Minimum temperature yesterday: 76 °F (at 10:53 PM)
Average temperature yesterday: 79 °F

Past Weeks' High & Low Weather Summary

 TemperatureHumidityPressure
High103 °F (Jul 27, 4:53 PM)94% (Jul 17, 11:53 AM)30.18 "Hg (Jul 17, 11:53 AM)
Low65 °F (Jul 18, 6:53 AM)26% (Jul 15, 12:53 PM)29.83 "Hg (Jul 16, 6:53 PM)
Average83 °F60%29.97 "Hg
* Reported Jul 14 11:53 PM — Jul 29 11:53 PM, Fort Worth, Weather by CustomWeather, © 2014

Note: Actual official high and low records may vary slightly from our data, if they occured in-between our weather recording intervals... More about our weather records

Advertising

Fort Worth weather history for previous 24 hours

 ConditionsComfort  
Time TempWeatherWind HumidityBarometerVisibility
11:53 PM
Jul 29
77 °FClear.5 mph58%30.03 "Hg10 mi
10:53 PM76 °FClear.No wind54%30.04 "Hg10 mi
9:53 PM78 °FClear.3 mph46%30.03 "Hg10 mi
8:53 PM79 °FSunny.6 mph47%30.02 "Hg10 mi
7:53 PM81 °FSunny.8 mph53%30.03 "Hg10 mi
6:53 PM83 °FSunny.8 mph53%30.05 "Hg10 mi
5:53 PM84 °FSunny.3 mph49%30.04 "Hg10 mi
4:53 PM86 °FSunny.6 mph49%30.05 "Hg10 mi
3:53 PM81 °FPartly sunny.No wind60%30.08 "Hg10 mi
2:53 PM78 °FLight rain. Scattered clouds.No wind69%30.11 "Hg10 mi
1:53 PM78 °FLight rain. Overcast.10 mph71%30.13 "Hg7 mi
12:53 PM80 °FOvercast.3 mph60%30.14 "Hg10 mi
12:03 PM77 °FRain. Cloudy.No wind69%30.18 "Hg5 mi
10:53 AM81 °FOvercast.7 mph53%30.13 "Hg10 mi
9:53 AM79 °FOvercast.6 mph58%30.12 "Hg10 mi
8:53 AM78 °FOvercast.6 mph60%30.12 "Hg10 mi
7:53 AM78 °FOvercast.3 mph58%30.11 "Hg10 mi
6:53 AM78 °FOvercast.5 mph58%30.09 "Hg10 mi
5:53 AM77 °FOvercast.5 mph62%30.08 "Hg10 mi
4:53 AM77 °FOvercast.5 mph62%30.07 "Hg10 mi
3:53 AM79 °FMostly cloudy.5 mph58%30.07 "Hg10 mi
2:53 AM80 °FOvercast.7 mph54%30.07 "Hg10 mi
1:53 AM79 °FOvercast.5 mph58%30.07 "Hg10 mi
Weather by CustomWeather, © 2014

See weather overviewHow to use our weather pages